Ogden, UT

8:22 AM MDT on June 26, 2017 (GMT -0600)
Ogden-Hinckley

Weather History for KOGD - April, 2014

Change the Weather History Date:

Tuesday, April 15, 2014

  Actual Average Record
Temperature  
Mean Temperature 52 °F -  
Max Temperature 66 °F 65 °F 83 °F (1985)
Min Temperature 37 °F 38 °F 24 °F (1945)
Degree Days  
Heating Degree Days 14    
Growing Degree Days 2 (Base 50)    
Moisture  
Dew Point 15 °F    
Average Humidity 25    
Maximum Humidity 34    
Minimum Humidity 11    
Precipitation  
Precipitation 0.00 in - - ()
Sea Level Pressure  
Sea Level Pressure 29.89 in    
Wind  
Wind Speed 11 mph (SSW)    
Max Wind Speed 22 mph    
Max Gust Speed 30 mph    
Visibility 10 miles    
Events      
Averages and records for this station are not official NWS values.
T = Trace of Precipitation, MM = Missing Value Source: NWS Daily Summary

Daily Weather History Graph

Daily Weather History Graph

Search for Another Location

Airport or City:

Trip Planner

Search our weather history database for the weather conditions in past years. The results will help you decide how hot, cold, wet, or windy it might be!

Date:

Astronomy

Apr. 15, 2014 Rise Set
Actual Time 6:48 AM MDT 8:08 PM MDT
Civil Twilight 6:19 AM MDT 8:36 PM MDT
Nautical Twilight 5:45 AM MDT 9:11 PM MDT
Astronomical Twilight 5:09 AM MDT 9:47 PM MDT
Moon 8:53 PM MDT (4/15) 6:58 AM MDT (4/15)
Length of Visible Light 14h 16m
Length of Day
13h 19m
Full, 100% of the Moon is Illuminated
Apr 15
Full
Apr 22
Last Quarter
Apr 29
New
May 6
First Quarter
May 14
Full

Hourly Weather History & Observations

Time (MDT) Temp. Windchill Dew Point Humidity Pressure Visibility Wind Dir Wind Speed Gust Speed Precip Events Conditions
12:53 AM 39.9 °F 33.9 °F 6.1 °F 25% 30.12 in 10.0 mi South 9.2 mph - N/A   Clear
1:53 AM 39.9 °F 33.4 °F 6.1 °F 25% 30.09 in 10.0 mi South 10.4 mph - N/A   Clear
2:53 AM 39.0 °F 32.3 °F 7.0 °F 27% 30.07 in 10.0 mi SSE 10.4 mph - N/A   Clear
3:53 AM 37.9 °F 30.5 °F 8.1 °F 29% 30.05 in 10.0 mi South 11.5 mph - N/A   Clear
4:53 AM 37.9 °F 31.5 °F 9.0 °F 30% 30.03 in 10.0 mi SSE 9.2 mph - N/A   Clear
5:53 AM 37.9 °F 31.5 °F 10.0 °F 32% 30.01 in 10.0 mi South 9.2 mph - N/A   Clear
6:53 AM 37.9 °F 32.1 °F 10.9 °F 33% 30.00 in 10.0 mi South 8.1 mph - N/A   Clear
7:53 AM 39.9 °F 34.5 °F 12.0 °F 32% 29.99 in 10.0 mi South 8.1 mph - N/A   Clear
8:53 AM 46.0 °F 41.0 °F 12.9 °F 26% 29.97 in 10.0 mi SSE 10.4 mph - N/A   Clear
9:53 AM 53.1 °F - 16.0 °F 23% 29.94 in 10.0 mi South 11.5 mph - N/A   Clear
10:53 AM 57.0 °F - 15.1 °F 19% 29.91 in 10.0 mi South 13.8 mph - N/A   Clear
11:53 AM 61.0 °F - 16.0 °F 17% 29.87 in 10.0 mi South 15.0 mph - N/A   Clear
12:53 PM 62.1 °F - 12.9 °F 15% 29.84 in 10.0 mi WSW 8.1 mph - N/A   Clear
1:53 PM 64.0 °F - 14.0 °F 14% 29.80 in 10.0 mi WSW 11.5 mph - N/A   Scattered Clouds
2:53 PM 64.9 °F - 10.0 °F 12% 29.77 in 10.0 mi WSW 12.7 mph - N/A   Clear
3:53 PM 66.9 °F - 10.9 °F 11% 29.73 in 10.0 mi WSW 13.8 mph 20.7 mph N/A   Clear
4:53 PM 64.0 °F - 14.0 °F 14% 29.71 in 10.0 mi WNW 9.2 mph - N/A   Mostly Cloudy
5:53 PM 61.0 °F - 25.0 °F 25% 29.72 in 10.0 mi NNW 21.9 mph 29.9 mph N/A   Scattered Clouds
6:00 PM 60.1 °F - 26.1 °F 27% 29.79 in 10.0 mi North 18.4 mph 29.9 mph N/A   Scattered Clouds
6:53 PM 57.9 °F - 28.0 °F 32% 29.75 in 10.0 mi NNE 10.4 mph - N/A   Mostly Cloudy
7:53 PM 55.0 °F - 27.0 °F 34% 29.78 in 10.0 mi North 19.6 mph - N/A   Partly Cloudy
8:53 PM 54.0 °F - 24.1 °F 31% 29.80 in 10.0 mi North 15.0 mph - N/A   Clear
9:53 PM 53.1 °F - 19.0 °F 26% 29.82 in 10.0 mi North 15.0 mph 24.2 mph N/A   Clear
10:53 PM 51.1 °F - 19.0 °F 28% 29.85 in 10.0 mi North 13.8 mph - N/A   Clear
11:53 PM 48.0 °F - 16.0 °F 28% 29.86 in 10.0 mi WNW 5.8 mph - N/A   Clear